Погода в Липецке

Погода в Липецке : погода сейчас, прогноз погоды и архив. Всё, что Вы хотите узнать о погоде в Липецке!

Хотите узнать прогноз погоды в Липецке? Тогда Вам сюда: Погода в Липецке

Поиск расширенной информации на нашем сайте:

Другие новости

Новости СМИ2

Главная страница сайта

Новости сайта

02.10.2013

Напоминаем, что на нашем новом сайте вы можете получить высокодетализированные прогнозы погоды по пунктам России, СНГ и мира (включающие важные для авиации метеовеличины, такие как направление и скорость ветра, видимость, явления погоды, количество и форма облачности, нижняя и верхняя граница облачности), а также ознакомиться с разнообразными материалами по авиационной метеорологии и подборкой полезных ссылок на эту тему.

Сайт Метеоцентр.Азия посвящён разработке технологий оптимизации авиаметеорологического обслуживания, включая проектирование и перспективное создание нескольких автоматизированных авиаметеорологических систем:
- система выпуска высокодетальных прогностических карт явлений погоды для нижнего воздушного пространства по России и ближнему зарубежью;
- система верификации прогнозов TAF (выпускаемых синоптиками официальных АМСГ РФ и ближнего зарубежья) и AUTOTAF (выпускаемых сайтом Метеоцентр.Азия) - выявление ошибок, онлайн-сопоставление с фактической погодой METAR, автоматическое внесение коррективов в прогнозы при резком отклонении фактической погоды от прогноза, подсчёт оправдываемости прогнозов по элементам и в целом;
- система обработки, анализа и отображения авиаметеорологической информации для применения провайдерами метеорологической информации.

Рекомендуем: вся мебель здесь.

Погода в Липецке - сегодня

Время (UTC), дата Ветер
(°,м/с) 
Видим.   Явления Облачность Т
(°С)
Тd
(°С)
f(%) Тe
(°С)
Pmin
(гПа)
dP
(гПа)
Po
(мм)
O2
(г/м3)
Тmin Tmax R s Состояние
почвы
06 26.04.17 180 (Ю) 8-10{10}  10 км    8/0 средняя, верхняя 
[Ac trans|Ci fib]
+9.7 +0.2 52 +8  1021.1  -0.5  750  292           
09 26.04.17 210 (ЮЗ) 11-15{17}  10 км    6/3 1500 м средняя, верхняя 
[Cu hum|Ac trans|Ci fib]
+15.8 -2.2 29 +15  1020.4  -0.2  749  286           
12 26.04.17 210 (ЮЗ) 12-16{18}  10 км    3/0 верхняя 
[Ci fib]
+18.3 -2.7 24 +18  1020  -0.2  749  283           
15 26.04.17 210 (ЮЗ) 10  10 км    9/0 средняя, верхняя 
[Ac trans|Ci fib]
+16.4 -2.5 27 +15  1019.2  -1  749  285    +18.4       
18 26.04.17 210 (ЮЗ) 7{14}  10 км    8/0 средняя 
[Ac trans]
+13 -3 33 +12  1020.1  0.7  749  288           
21 26.04.17 200 (Ю) 9-10{11}  10 км    4/0 средняя, верхняя 
[Ac trans|Ci fib]
+10.7 +0.2 48 +9  1020.6  0.3  749  290           
03 27.04.17 190 (Ю) 9-10{11}  10 км    8/0 средняя, верхняя 
[Ac trans|Ci fib]
+7.5 -1.9 51 +5  1021.3  0.1  750  294  +6.9         
06 27.04.17 200 (Ю) 9-10{12}  10 км    8/0 средняя, верхняя 
[Ac trans|Ci fib]
+12 -0.9 41 +10  1021.7  0.8  750  290           
09 27.04.17 200 (Ю) 9-10{14}  10 км    9/0 верхняя 
[Ci fib]
+17.8 -5.4 20 +17  1021  -0.3  750  284           
12 27.04.17 200 (Ю) 12-15{17}  10 км    9/0 верхняя 
[Ci fib]
+19.9 -7.4 15 +20  1019.3  -1.5  749  282           
15 27.04.17 210 (ЮЗ) 10-15{15}  10 км    8/0 верхняя 
[Ci fib]
+20.5 -7.4 15 +21  1018.5  -0.8  748  281    +21       
18 27.04.17 200 (Ю) 5{15}  10 км    5/0 верхняя 
[Ci fib]
+14.9 -3.8 27 +14  1019.7  0.8  749  287           
21 27.04.17 200 (Ю) 10 км    5/0 верхняя 
[Ci fib]
+14.1 +0.4 39 +14  1020.1  0.4  749  287           
00 28.04.17 190 (Ю) 10 км    8/0 верхняя 
[Ci fib]
+11.3 +0 46 +10  1020.6  0.2  749  290           
03 28.04.17 180 (Ю) 10 км    9/0 верхняя 
[Ci fib]
+10.3 +0.4 50 +9  1021.2  0.6  750  291  +9.9         
06 28.04.17 180 (Ю) 10 км    9/0 верхняя 
[Ci fib]
+16.4 +2.5 39 +16  1021.4  0.6  750  285           
09 28.04.17 200 (Ю) 9-12{13}  10 км    9/0 средняя, верхняя 
[Ac trans|Ci fib]
+21 -1.7 22 +21  1020.8  -0.2  750  281           
12 28.04.17 180 (Ю) 7-11{13}  10 км    9/0 средняя, верхняя 
[Ac trans|Ci fib]
+23.1 -2.5 18 +23  1019.8  -0.9  749  279           
15 28.04.17 200 (Ю) 6{11}  10 км    9/0 средняя, верхняя 
[Ac trans|Ci fib]
+22.1 -3 18 +22  1019.3  -0.5  749  280    +23.9       
18 28.04.17 150 (ЮВ) 10 км    8/0 верхняя 
[Ci fib]
+14.7 +1.1 40 +15  1020.2  0.3  749  286           
21 28.04.17 170 (Ю) 10 км    4/0 верхняя 
[Ci fib]
+12.6 +3.8 55 +12  1020.7  0.4  750  288           
00 29.04.17 160 (Ю) 10 км    3/0 верхняя 
[Ci fib]
+11 +4.8 66 +10  1020.9  750  290           
03 29.04.17 160 (Ю) 10 км    6/0 верхняя 
[Ci fib]
+11.3 +3.4 58 +10  1021.1  0.3  750  290  +9.5         
06 29.04.17 140 (ЮВ) 10 км    6/0 верхняя 
[Ci fib]
+15.7 +2.7 42 +15  1020.5  -0.3  750  285           
09 29.04.17 130 (ЮВ) 7-11{11}  10 км    6/0 верхняя 
[Ci fib]
+19.1 +0 28 +19  1020.1  -0.2  749  282           
Время (UTC), дата Ветер
(°,м/с) 
Видим.   Явления Облачность Т
(°С)
Тd
(°С)
f(%) Тe
(°С)
Pmin
(гПа)
dP
(гПа)
Po
(мм)
O2
(г/м3)
Тmin Tmax R s Состояние
почвы

Для получения пояснительной информации подведите курсор к названию столбца.

ПОГОДА в Липецке - архив

Всё, что Вы хотите узнать о погоде в Липецке - удобно и подробно!

Выберите нужную дату (начиная с 1 января 2015* года) и нажмите кнопку "Найти".
Будут отображены архивные сводки погоды по пункту Липецк, начиная с указанной даты.


Отображать данные в формате CSV (для использования в таблицах Excel)


Внимание! Наш архив погоды предназначен исключительно для личного некоммерческого использования в познавательных целях. Если Вам необходимы официальные справки о состоянии погоды (для производственных, юридических, коммерческих и т.п. целей), обращайтесь в органы Росгидромета.

*Примечание: данная дата относится к архиву по метеостанциям СССР (Россия, СНГ, Балтия).
Архив по метеостанциям Зарубежной Европы и Азии (кроме Китая) хранится 10 дней, по другим регионам земного шара (Китай, Африка, Америка, Австралия, Океания) - 1 день.

Липецк - район местоположения метеостанции


Название, широта, долгота, высота метеостанции:
Липецк 52.7°ш. 39.5°д. 177 м над ур. моря [Российская Федерация]

Дополнительная информация

В oтличие oт бoльшинства пoгoдных сайтoв мы публикуем пoдрoбную метеoинфoрмацию в детальнoм прoфессиoнальнoм фoрмате.

Характеристики температуры и влажнoсти вoздуха измеряются на высoте 2 м в тени вдали oт зданий и деревьев.
Скoрoсть ветра измеряется на высoте 10 м (на урoвне рoста челoвека скoрoсть ветра ниже в 1.5-2 раза). Если метеoстанция нахoдится в гoрoде или в лесу, тo скoрoсть ветра занижена на 2-4 м/с пo сравнению с oткрытым местoм. Скoрoсть ветра над акватoриями крупных рек и oзёр, а также на вершинах хoлмoв на 2-5 м/с выше, чем в oбычных услoвиях.
Атмoсфернoе давление в разных тoчках местнoсти мoжет значительнo oтличаться oт давления на метеoстанции, в зависимoсти oт услoвий рельефа (при пoдъёме на 10 м давление пoнижается примернo на 1 мм рт.ст.).